Back to catalog

STARLINK-32173

AliveCommunicationsVLEO
NORAD 60586·PAYLOAD·🇺🇸 United States

Launched Aug 20, 2024 from Cape Canaveral Space Force Station

Loading…

Next Passes (next 24 hours)

TLE

FreshSource: CelesTrak SupGP

Epoch: Sep 14, 2026, 14:22 UTC

1 60586C 24150D   26257.59909722  .00059797  00000+0  17669-2 0  2576
2 60586  53.1563 145.1620 0001182  93.7122   2.4059 15.34357309    16

Track STARLINK-32173 in real time with AllMySat

Download on the App Store